| time (UTC) | temp F | wind direction | speed knots | gust knots | rain 1hr in | rain 24hr in | rain mn in | humidity % | barometer mb |
| 20260906120136 | 73 | 0 | 0.9 | 0.9 | 0.00 | 0.00 | 0.00 | 98 | 1010.8 |
| 20260906115637 | 73 | 5 | 0.0 | 0.0 | 0.00 | 0.00 | 0.00 | 98 | 1010.6 |
| 20260906115132 | 73 | 5 | 0.0 | 0.0 | 0.00 | 0.00 | 0.00 | 98 | 1010.6 |
| 20260906114625 | 73 | 5 | 0.9 | 0.9 | 0.00 | 0.00 | 0.00 | 98 | 1010.7 |
| 20260906114121 | 73 | 9 | 0.0 | 0.9 | 0.00 | 0.00 | 0.00 | 98 | 1010.4 |
| 20260906113620 | 73 | 9 | 0.0 | 0.9 | 0.00 | 0.00 | 0.00 | 98 | 1010.7 |
| 20260906113115 | 73 | 9 | 0.9 | 0.9 | 0.00 | 0.00 | 0.00 | 98 | 1010.6 |
| 20260906112614 | 73 | 9 | 0.9 | 0.9 | 0.00 | 0.00 | 0.00 | 98 | 1010.4 |
| 20260906112111 | 73 | 9 | 0.0 | 0.0 | 0.00 | 0.00 | 0.00 | 98 | 1010.6 |
| 20260906111610 | 73 | 1 | 0.0 | 0.0 | 0.00 | 0.00 | 0.00 | 98 | 1010.5 |
| 20260906111106 | 73 | 0 | 0.0 | 0.0 | 0.00 | 0.00 | 0.00 | 98 | 1010.5 |
| 20260906110606 | 72 | 4 | 0.0 | 0.0 | 0.00 | 0.00 | 0.00 | 98 | 1010.4 |
| 20260906110100 | 72 | 5 | 0.0 | 0.0 | 0.00 | 0.00 | 0.00 | 98 | 1010.3 |
| 20260906105554 | 72 | 3 | 0.0 | 0.0 | 0.00 | 0.00 | 0.00 | 98 | 1010.2 |
| 20260906105051 | 72 | 2 | 0.0 | 0.0 | 0.00 | 0.00 | 0.00 | 98 | 1010.3 |
| 20260906104549 | 72 | 22 | 0.0 | 0.0 | 0.00 | 0.00 | 0.00 | 98 | 1010.3 |
| 20260906104044 | 72 | 357 | 0.0 | 0.0 | 0.00 | 0.00 | 0.00 | 98 | 1010.3 |
| 20260906103542 | 72 | 1 | 0.0 | 0.0 | 0.00 | 0.00 | 0.00 | 98 | 1010.3 |
| 20260906103038 | 72 | 349 | 0.0 | 0.0 | 0.00 | 0.00 | 0.00 | 98 | 1010.1 |
| 20260906102537 | 72 | 354 | 0.9 | 0.9 | 0.00 | 0.00 | 0.00 | 98 | 1010.0 |
| 20260906102032 | 72 | 355 | 0.9 | 0.9 | 0.00 | 0.00 | 0.00 | 98 | 1010.0 |
| 20260906101527 | 72 | 9 | 0.9 | 0.9 | 0.00 | 0.00 | 0.00 | 98 | 1009.7 |
| 20260906101022 | 72 | 0 | 0.9 | 0.9 | 0.00 | 0.00 | 0.00 | 98 | 1009.9 |
| 20260906100518 | 72 | 5 | 0.0 | 0.0 | 0.00 | 0.00 | 0.00 | 98 | 1009.6 |
| 20260906100012 | 72 | 348 | 0.9 | 0.9 | 0.00 | 0.00 | 0.00 | 98 | 1009.7 |
| 20260906095507 | 72 | 357 | 1.7 | 1.7 | 0.00 | 0.00 | 0.00 | 98 | 1009.8 |
| 20260906095002 | 72 | 344 | 0.9 | 0.9 | 0.00 | 0.00 | 0.00 | 98 | 1009.8 |
| 20260906094501 | 72 | 358 | 0.9 | 0.9 | 0.00 | 0.00 | 0.00 | 98 | 1009.7 |
| 20260906093957 | 72 | 353 | 0.0 | 0.0 | 0.00 | 0.00 | 0.00 | 98 | 1009.8 |
| 20260906093453 | 72 | 354 | 0.0 | 0.0 | 0.00 | 0.00 | 0.00 | 98 | 1009.7 |
| 20260906092954 | 72 | 358 | 0.0 | 0.0 | 0.00 | 0.00 | 0.00 | 98 | 1009.5 |
| 20260906092453 | 72 | 358 | 0.0 | 0.0 | 0.00 | 0.00 | 0.00 | 98 | 1009.4 |
| 20260906091949 | 72 | 348 | 0.9 | 0.9 | 0.00 | 0.00 | 0.00 | 98 | 1009.4 |
| 20260906091444 | 72 | 10 | 0.0 | 0.0 | 0.00 | 0.00 | 0.00 | 98 | 1009.2 |
| 20260906090941 | 72 | 3 | 0.9 | 0.9 | 0.00 | 0.00 | 0.00 | 98 | 1009.2 |
| 20260906090436 | 72 | 359 | 0.0 | 0.0 | 0.00 | 0.00 | 0.00 | 98 | 1009.4 |
| 20260906085936 | 72 | 15 | 0.0 | 0.0 | 0.00 | 0.00 | 0.00 | 98 | 1009.3 |
| 20260906085435 | 72 | 359 | 0.0 | 0.0 | 0.00 | 0.00 | 0.00 | 98 | 1009.3 |
| 20260906084934 | 72 | 1 | 0.0 | 0.0 | 0.00 | 0.00 | 0.00 | 98 | 1009.4 |
| 20260906084430 | 72 | 357 | 0.0 | 0.0 | 0.00 | 0.00 | 0.00 | 98 | 1009.1 |
| 20260906083928 | 72 | 355 | 0.0 | 0.0 | 0.00 | 0.00 | 0.00 | 98 | 1009.2 |
| 20260906083424 | 72 | 342 | 0.0 | 0.0 | 0.00 | 0.00 | 0.00 | 98 | 1009.4 |
| 20260906082923 | 72 | 347 | 0.0 | 0.0 | 0.00 | 0.00 | 0.00 | 98 | 1009.1 |
| 20260906082419 | 72 | 348 | 0.0 | 0.0 | 0.00 | 0.00 | 0.00 | 97 | 1009.1 |
| 20260906081914 | 72 | 351 | 0.0 | 0.0 | 0.00 | 0.00 | 0.00 | 97 | 1009.2 |
| 20260906081410 | 72 | 8 | 0.0 | 0.0 | 0.00 | 0.00 | 0.00 | 98 | 1008.9 |
| 20260906080906 | 72 | 358 | 0.0 | 0.0 | 0.00 | 0.00 | 0.00 | 97 | 1009.0 |
| 20260906080402 | 72 | 357 | 0.0 | 0.0 | 0.00 | 0.00 | 0.00 | 97 | 1009.1 |
| 20260906075901 | 72 | 2 | 0.0 | 0.0 | 0.00 | 0.00 | 0.00 | 97 | 1009.0 |
| 20260906075356 | 72 | 1 | 0.0 | 0.0 | 0.00 | 0.00 | 0.00 | 97 | 1008.9 |
| 20260906074852 | 72 | 357 | 0.0 | 0.0 | 0.00 | 0.00 | 0.00 | 97 | 1008.9 |
| 20260906074351 | 72 | 338 | 0.0 | 0.0 | 0.00 | 0.00 | 0.00 | 97 | 1008.8 |
| 20260906073850 | 72 | 339 | 0.0 | 0.0 | 0.00 | 0.00 | 0.00 | 97 | 1008.9 |
| 20260906073345 | 72 | 344 | 0.0 | 0.0 | 0.00 | 0.00 | 0.00 | 97 | 1008.9 |
| 20260906072842 | 72 | 352 | 0.0 | 0.0 | 0.00 | 0.00 | 0.00 | 97 | 1008.8 |
| 20260906072337 | 72 | 333 | 0.0 | 0.0 | 0.00 | 0.00 | 0.00 | 97 | 1008.9 |
| 20260906071833 | 72 | 311 | 0.0 | 0.0 | 0.00 | 0.00 | 0.00 | 97 | 1009.1 |
| 20260906071328 | 72 | 337 | 0.0 | 0.0 | 0.00 | 0.00 | 0.00 | 97 | 1008.9 |
| 20260906070824 | 72 | 339 | 0.0 | 0.0 | 0.00 | 0.00 | 0.00 | 97 | 1009.0 |
| 20260906070319 | 72 | 333 | 0.0 | 0.0 | 0.00 | 0.00 | 0.00 | 97 | 1009.1 |
| 20260906065814 | 72 | 340 | 0.0 | 0.0 | 0.00 | 0.00 | 0.00 | 97 | 1008.8 |
| 20260906065309 | 72 | 343 | 0.0 | 0.0 | 0.00 | 0.00 | 0.00 | 97 | 1008.9 |
| 20260906064805 | 72 | 336 | 0.0 | 0.0 | 0.00 | 0.00 | 0.00 | 97 | 1008.9 |
| 20260906064301 | 72 | 346 | 0.0 | 0.0 | 0.00 | 0.00 | 0.00 | 97 | 1008.9 |
| 20260906063755 | 71 | 343 | 0.0 | 0.0 | 0.00 | 0.00 | 0.00 | 97 | 1009.0 |
| 20260906063251 | 72 | 346 | 0.0 | 0.0 | 0.00 | 0.00 | 0.00 | 97 | 1008.9 |
| 20260906062745 | 72 | 346 | 0.0 | 0.0 | 0.00 | 0.00 | 0.00 | 97 | 1009.0 |
| 20260906062245 | 72 | 337 | 0.0 | 0.0 | 0.00 | 0.00 | 0.00 | 97 | 1009.0 |
| 20260906061741 | 72 | 338 | 0.0 | 0.0 | 0.00 | 0.00 | 0.00 | 97 | 1009.2 |
| 20260906061237 | 72 | 337 | 0.0 | 0.0 | 0.00 | 0.00 | 0.00 | 97 | 1009.1 |
| 20260906060732 | 72 | 343 | 0.9 | 0.9 | 0.00 | 0.00 | 0.00 | 97 | 1009.2 |
| 20260906060230 | 72 | 341 | 0.9 | 0.9 | 0.00 | 0.00 | 0.00 | 97 | 1009.3 |
| 20260906055725 | 72 | 356 | 0.9 | 0.9 | 0.00 | 0.00 | 0.00 | 97 | 1009.3 |
| 20260906055220 | 72 | 2 | 0.0 | 0.0 | 0.00 | 0.00 | 0.00 | 97 | 1009.3 |
| 20260906054715 | 72 | 358 | 0.9 | 0.9 | 0.00 | 0.00 | 0.00 | 97 | 1009.4 |
| 20260906054210 | 72 | 353 | 0.9 | 0.9 | 0.00 | 0.00 | 0.00 | 97 | 1009.5 |
| 20260906053707 | 72 | 358 | 0.9 | 0.9 | 0.00 | 0.00 | 0.00 | 97 | 1009.2 |
| 20260906053202 | 72 | 353 | 0.9 | 0.9 | 0.00 | 0.00 | 0.00 | 97 | 1009.4 |
| 20260906052657 | 72 | 345 | 0.0 | 0.0 | 0.00 | 0.00 | 0.00 | 97 | 1009.4 |
| 20260906052153 | 72 | 342 | 0.9 | 1.7 | 0.00 | 0.00 | 0.00 | 97 | 1009.5 |
| 20260906051650 | 72 | 353 | 0.9 | 0.9 | 0.00 | 0.00 | 0.00 | 97 | 1009.3 |
| 20260906051149 | 72 | 356 | 0.9 | 0.9 | 0.00 | 0.00 | 0.00 | 97 | 1009.4 |
| 20260906050645 | 72 | 352 | 0.9 | 1.7 | 0.00 | 0.00 | 0.00 | 97 | 1009.3 |
| 20260906050140 | 72 | 6 | 0.9 | 0.9 | 0.00 | 0.00 | 0.00 | 97 | 1009.5 |
| 20260906045638 | 72 | 358 | 0.9 | 0.9 | 0.00 | 0.00 | 0.00 | 97 | 1009.6 |
| 20260906045133 | 72 | 359 | 0.9 | 0.9 | 0.00 | 0.00 | 0.00 | 97 | 1009.3 |
| 20260906044630 | 72 | 355 | 0.9 | 0.9 | 0.00 | 0.00 | 0.00 | 97 | 1009.5 |
| 20260906044125 | 73 | 353 | 0.9 | 0.9 | 0.00 | 0.00 | 0.00 | 97 | 1009.4 |
| 20260906043621 | 73 | 1 | 0.9 | 0.9 | 0.00 | 0.00 | 0.00 | 97 | 1009.4 |
| 20260906043116 | 73 | 3 | 0.9 | 0.9 | 0.00 | 0.00 | 0.00 | 97 | 1009.4 |
| 20260906042615 | 73 | 3 | 0.9 | 0.9 | 0.00 | 0.00 | 0.00 | 97 | 1009.4 |
| 20260906042109 | 73 | 6 | 0.0 | 0.0 | 0.00 | 0.00 | 0.00 | 97 | 1009.8 |
| 20260906041606 | 73 | 347 | 0.9 | 0.9 | 0.00 | 0.00 | 0.00 | 97 | 1009.7 |
| 20260906041101 | 73 | 335 | 0.0 | 0.0 | 0.00 | 0.00 | 0.00 | 97 | 1009.9 |
| 20260906040556 | 73 | 336 | 0.0 | 0.0 | 0.00 | 0.00 | 0.00 | 97 | 1009.8 |
| 20260906040051 | 73 | 339 | 0.0 | 0.0 | 0.00 | 0.00 | 0.00 | 97 | 1009.6 |
| 20260906035547 | 73 | 328 | 0.0 | 0.9 | 0.00 | 0.67 | 0.67 | 97 | 1009.9 |
| 20260906035042 | 73 | 347 | 0.0 | 0.0 | 0.00 | 0.67 | 0.67 | 97 | 1009.9 |
| 20260906034542 | 73 | 337 | 0.0 | 0.9 | 0.00 | 0.67 | 0.67 | 97 | 1009.7 |
| 20260906034037 | 73 | 351 | 0.0 | 0.0 | 0.00 | 0.67 | 0.67 | 97 | 1010.0 |
| 20260906033532 | 73 | 351 | 0.0 | 0.0 | 0.00 | 0.67 | 0.67 | 97 | 1009.9 |
| 20260906033028 | 73 | 351 | 0.0 | 0.0 | 0.00 | 0.67 | 0.67 | 97 | 1010.0 |
| 20260906032525 | 73 | 346 | 0.0 | 0.0 | 0.00 | 0.67 | 0.67 | 97 | 1010.0 |
| 20260906032024 | 73 | 11 | 0.0 | 0.0 | 0.00 | 0.67 | 0.67 | 97 | 1010.1 |
| 20260906031520 | 74 | 343 | 0.9 | 0.9 | 0.00 | 0.67 | 0.67 | 97 | 1010.0 |
| 20260906031015 | 74 | 358 | 0.0 | 0.0 | 0.00 | 0.67 | 0.67 | 97 | 1010.1 |
| 20260906030514 | 74 | 336 | 0.0 | 0.0 | 0.00 | 0.67 | 0.67 | 97 | 1010.1 |
| 20260906030015 | 74 | 329 | 0.0 | 0.0 | 0.00 | 0.67 | 0.67 | 97 | 1010.0 |
| 20260906025514 | 74 | 342 | 0.0 | 0.0 | 0.00 | 0.67 | 0.67 | 96 | 1010.2 |
| 20260906025012 | 74 | 1 | 0.0 | 0.0 | 0.00 | 0.67 | 0.67 | 96 | 1010.0 |
| 20260906024508 | 74 | 347 | 0.9 | 0.9 | 0.00 | 0.67 | 0.67 | 96 | 1010.1 |
| 20260906024007 | 74 | 344 | 0.0 | 0.0 | 0.00 | 0.67 | 0.67 | 96 | 1010.3 |
| 20260906023504 | 74 | 350 | 0.9 | 0.9 | 0.00 | 0.67 | 0.67 | 96 | 1010.1 |
| 20260906022958 | 74 | 359 | 0.0 | 0.9 | 0.00 | 0.67 | 0.67 | 96 | 1010.2 |
| 20260906022454 | 74 | 358 | 0.0 | 0.0 | 0.00 | 0.67 | 0.67 | 96 | 1010.3 |
| 20260906021949 | 74 | 6 | 0.0 | 0.0 | 0.00 | 0.67 | 0.67 | 96 | 1010.3 |
| 20260906021444 | 74 | 5 | 0.0 | 0.9 | 0.00 | 0.67 | 0.67 | 96 | 1009.9 |
| 20260906020938 | 74 | 346 | 0.0 | 0.9 | 0.00 | 0.67 | 0.67 | 96 | 1009.9 |
| 20260906020433 | 74 | 25 | 0.0 | 0.0 | 0.00 | 0.67 | 0.67 | 96 | 1009.9 |
| 20260906015927 | 75 | 358 | 0.0 | 0.0 | 0.00 | 0.67 | 0.67 | 96 | 1010.2 |
| 20260906015426 | 75 | 349 | 0.0 | 0.0 | 0.00 | 0.67 | 0.67 | 96 | 1010.4 |
| 20260906014921 | 75 | 344 | 0.0 | 0.9 | 0.00 | 0.67 | 0.67 | 96 | 1010.4 |
| 20260906014420 | 75 | 339 | 0.9 | 0.9 | 0.00 | 0.67 | 0.67 | 96 | 1010.5 |
| 20260906013917 | 75 | 355 | 0.0 | 0.0 | 0.00 | 0.67 | 0.67 | 96 | 1010.4 |
| 20260906013412 | 75 | 354 | 0.0 | 0.0 | 0.00 | 0.67 | 0.67 | 96 | 1010.4 |
| 20260906012908 | 75 | 173 | 0.0 | 0.0 | 0.00 | 0.67 | 0.67 | 96 | 1010.3 |
| 20260906012402 | 75 | 172 | 0.0 | 0.0 | 0.00 | 0.67 | 0.67 | 96 | 1010.1 |
| 20260906011901 | 74 | 189 | 0.0 | 0.9 | 0.00 | 0.67 | 0.67 | 96 | 1010.3 |
| 20260906011356 | 74 | 18 | 0.0 | 0.0 | 0.00 | 0.67 | 0.67 | 96 | 1010.1 |
| 20260906010852 | 74 | 32 | 0.0 | 0.0 | 0.00 | 0.67 | 0.67 | 95 | 1010.3 |
| 20260906010348 | 74 | 108 | 0.9 | 0.9 | 0.00 | 0.67 | 0.67 | 96 | 1009.8 |
| 20260906005843 | 74 | 337 | 0.9 | 0.9 | 0.00 | 0.67 | 0.67 | 96 | 1010.0 |
| 20260906005343 | 74 | 10 | 0.0 | 0.0 | 0.00 | 0.67 | 0.67 | 96 | 1009.8 |
| 20260906004841 | 74 | 38 | 0.0 | 0.0 | 0.00 | 0.67 | 0.67 | 96 | 1009.6 |
| 20260906004336 | 75 | 54 | 0.0 | 0.9 | 0.38 | 0.67 | 0.67 | 96 | 1009.8 |
| 20260906003831 | 75 | 79 | 0.0 | 0.0 | 1.75 | 0.67 | 0.67 | 95 | 1009.9 |
| 20260906003326 | 75 | 36 | 0.9 | 0.9 | 2.08 | 0.63 | 0.63 | 95 | 1009.7 |
| 20260906002822 | 75 | 9 | 1.7 | 1.7 | 0.78 | 0.39 | 0.39 | 95 | 1009.6 |
| 20260906002321 | 75 | 355 | 0.9 | 0.9 | 0.38 | 0.28 | 0.28 | 95 | 1009.5 |
| 20260906001818 | 75 | 355 | 0.9 | 0.9 | 0.31 | 0.25 | 0.25 | 95 | 1009.3 |
| 20260906001312 | 75 | 3 | 0.9 | 0.9 | 0.12 | 0.22 | 0.22 | 95 | 1009.4 |
| 20260906000807 | 75 | 2 | 1.7 | 1.7 | 0.00 | 0.20 | 0.20 | 95 | 1008.9 |
| 20260906000303 | 76 | 41 | 0.9 | 0.9 | 0.00 | 0.20 | 0.20 | 95 | 1009.1 |
| 20260905235757 | 76 | 8 | 1.7 | 1.7 | 0.00 | 0.20 | 0.20 | 95 | 1008.8 |
| 20260905235256 | 76 | 22 | 0.0 | 0.9 | 0.00 | 0.20 | 0.20 | 95 | 1008.4 |
| 20260905234752 | 76 | 34 | 0.9 | 0.9 | 0.00 | 0.20 | 0.20 | 95 | 1008.1 |
| 20260905234247 | 76 | 41 | 0.0 | 0.0 | 0.00 | 0.20 | 0.20 | 95 | 1008.2 |
| 20260905233742 | 77 | 24 | 0.0 | 0.0 | 0.00 | 0.20 | 0.20 | 94 | 1008.4 |
| 20260905233242 | 77 | 357 | 0.9 | 0.9 | 0.00 | 0.20 | 0.20 | 94 | 1008.4 |
| 20260905232742 | 76 | 40 | 0.0 | 0.0 | 0.00 | 0.20 | 0.20 | 94 | 1008.5 |
| 20260905232238 | 76 | 10 | 0.9 | 0.9 | 0.12 | 0.20 | 0.20 | 93 | 1008.3 |
| 20260905231733 | 77 | 51 | 0.0 | 0.0 | 1.02 | 0.20 | 0.20 | 93 | 1008.4 |
| 20260905231229 | 77 | 58 | 0.0 | 0.9 | 1.02 | 0.18 | 0.18 | 91 | 1008.4 |
| 20260905230725 | 78 | 10 | 1.7 | 1.7 | 0.26 | 0.04 | 0.04 | 89 | 1008.5 |
| 20260905230222 | 79 | 11 | 0.9 | 0.9 | 0.07 | 0.01 | 0.01 | 87 | 1008.5 |
| 20260905225722 | 79 | 21 | 0.0 | 0.0 | 0.00 | 0.00 | 0.00 | 87 | 1008.7 |
| 20260905225217 | 79 | 11 | 0.9 | 0.9 | 0.00 | 0.00 | 0.00 | 88 | 1009.0 |
| 20260905224716 | 79 | 17 | 0.0 | 0.9 | 0.00 | 0.00 | 0.00 | 88 | 1008.8 |
| 20260905224212 | 79 | 9 | 1.7 | 1.7 | 0.00 | 0.00 | 0.00 | 89 | 1008.8 |
| 20260905223708 | 79 | 10 | 1.7 | 1.7 | 0.00 | 0.00 | 0.00 | 90 | 1008.8 |
| 20260905223205 | 79 | 16 | 1.7 | 1.7 | 0.00 | 0.00 | 0.00 | 90 | 1008.7 |
| 20260905222700 | 79 | 11 | 0.9 | 0.9 | 0.00 | 0.00 | 0.00 | 90 | 1008.3 |
| 20260905222159 | 80 | 9 | 1.7 | 1.7 | 0.00 | 0.00 | 0.00 | 89 | 1008.2 |
| 20260905221655 | 80 | 358 | 0.9 | 0.9 | 0.00 | 0.00 | 0.00 | 88 | 1008.2 |
| 20260905221152 | 81 | 12 | 1.7 | 1.7 | 0.00 | 0.00 | 0.00 | 87 | 1008.1 |
| 20260905220647 | 82 | 6 | 0.9 | 1.7 | 0.00 | 0.00 | 0.00 | 85 | 1007.9 |
| 20260905220143 | 83 | 22 | 1.7 | 1.7 | 0.00 | 0.00 | 0.00 | 82 | 1007.8 |
| 20260905215643 | 82 | 25 | 0.9 | 0.9 | 0.00 | 0.00 | 0.00 | 82 | 1007.7 |
| 20260905215138 | 82 | 26 | 0.9 | 0.9 | 0.00 | 0.00 | 0.00 | 83 | 1007.6 |
| 20260905214634 | 82 | 9 | 0.9 | 0.9 | 0.00 | 0.00 | 0.00 | 83 | 1007.5 |
| 20260905214129 | 83 | 12 | 0.0 | 0.0 | 0.00 | 0.00 | 0.00 | 84 | 1007.5 |
| 20260905213624 | 83 | 28 | 0.0 | 0.0 | 0.00 | 0.00 | 0.00 | 83 | 1007.7 |
| 20260905213120 | 84 | 0 | 0.9 | 0.9 | 0.00 | 0.00 | 0.00 | 82 | 1007.8 |
| 20260905212615 | 84 | 24 | 0.0 | 0.0 | 0.00 | 0.00 | 0.00 | 81 | 1007.9 |
| 20260905212114 | 84 | 12 | 0.9 | 0.9 | 0.00 | 0.00 | 0.00 | 81 | 1008.0 |
| 20260905211609 | 84 | 9 | 0.9 | 0.9 | 0.00 | 0.00 | 0.00 | 80 | 1007.8 |
| 20260905211105 | 84 | 15 | 0.9 | 0.9 | 0.00 | 0.00 | 0.00 | 81 | 1007.7 |
| 20260905210601 | 84 | 341 | 0.9 | 0.9 | 0.00 | 0.00 | 0.00 | 81 | 1007.6 |
| 20260905210055 | 84 | 21 | 0.0 | 0.9 | 0.00 | 0.00 | 0.00 | 83 | 1007.5 |
| 20260905205555 | 84 | 34 | 0.0 | 0.0 | 0.00 | 0.00 | 0.00 | 83 | 1007.8 |
| 20260905205055 | 85 | 23 | 0.0 | 0.9 | 0.00 | 0.00 | 0.00 | 82 | 1007.7 |
| 20260905204549 | 86 | 34 | 0.0 | 0.0 | 0.00 | 0.00 | 0.00 | 79 | 1007.5 |
| 20260905204044 | 87 | 36 | 0.9 | 0.9 | 0.00 | 0.00 | 0.00 | 78 | 1007.7 |
| 20260905203544 | 87 | 97 | 0.0 | 0.0 | 0.00 | 0.00 | 0.00 | 74 | 1007.5 |
| 20260905203040 | 88 | 103 | 0.0 | 0.9 | 0.00 | 0.00 | 0.00 | 73 | 1007.6 |
| 20260905202535 | 88 | 106 | 0.9 | 0.9 | 0.00 | 0.00 | 0.00 | 73 | 1007.6 |
| 20260905202030 | 88 | 87 | 0.0 | 0.9 | 0.00 | 0.00 | 0.00 | 75 | 1007.8 |
| 20260905201526 | 88 | 86 | 0.0 | 0.0 | 0.00 | 0.00 | 0.00 | 74 | 1007.8 |
| 20260905201025 | 87 | 117 | 0.9 | 0.9 | 0.00 | 0.00 | 0.00 | 74 | 1007.9 |
| 20260905200521 | 88 | 113 | 0.9 | 0.9 | 0.00 | 0.00 | 0.00 | 73 | 1007.8 |
| 20260905200020 | 89 | 115 | 0.9 | 0.9 | 0.00 | 0.00 | 0.00 | 74 | 1008.0 |
| 20260905195514 | 89 | 23 | 0.9 | 0.9 | 0.00 | 0.00 | 0.00 | 74 | 1008.2 |
| 20260905195010 | 88 | 104 | 0.9 | 0.9 | 0.00 | 0.00 | 0.00 | 74 | 1008.0 |
| 20260905194504 | 88 | 128 | 0.9 | 0.9 | 0.00 | 0.00 | 0.00 | 73 | 1008.3 |
| 20260905194003 | 87 | 2 | 0.0 | 0.0 | 0.00 | 0.00 | 0.00 | 76 | 1008.4 |
| 20260905193458 | 87 | 111 | 0.9 | 1.7 | 0.00 | 0.00 | 0.00 | 75 | 1008.4 |
| 20260905192953 | 88 | 24 | 0.0 | 0.0 | 0.00 | 0.00 | 0.00 | 75 | 1008.4 |
| 20260905192449 | 88 | 82 | 0.9 | 0.9 | 0.00 | 0.00 | 0.00 | 75 | 1008.6 |
| 20260905191944 | 88 | 90 | 0.9 | 0.9 | 0.00 | 0.00 | 0.00 | 75 | 1008.4 |
| 20260905191438 | 88 | 133 | 0.9 | 0.9 | 0.00 | 0.00 | 0.00 | 74 | 1008.7 |
| 20260905190937 | 88 | 103 | 0.0 | 0.9 | 0.00 | 0.00 | 0.00 | 74 | 1008.6 |
| 20260905190435 | 88 | 121 | 0.9 | 0.9 | 0.00 | 0.00 | 0.00 | 73 | 1008.7 |
| 20260905185934 | 88 | 145 | 0.0 | 0.9 | 0.00 | 0.00 | 0.00 | 74 | 1008.8 |
| 20260905185429 | 88 | 124 | 0.0 | 0.9 | 0.00 | 0.00 | 0.00 | 73 | 1008.9 |
| 20260905184928 | 88 | 150 | 1.7 | 1.7 | 0.00 | 0.00 | 0.00 | 72 | 1008.7 |
| 20260905184423 | 88 | 75 | 1.7 | 1.7 | 0.00 | 0.00 | 0.00 | 74 | 1008.9 |
| 20260905183921 | 88 | 134 | 0.9 | 1.7 | 0.00 | 0.00 | 0.00 | 75 | 1009.0 |
| 20260905183410 | 88 | 147 | 0.9 | 1.7 | 0.00 | 0.00 | 0.00 | 73 | 1009.0 |
| 20260905182905 | 87 | 164 | 1.7 | 1.7 | 0.00 | 0.00 | 0.00 | 74 | 1009.2 |
| 20260905182404 | 87 | 138 | 1.7 | 1.7 | 0.00 | 0.00 | 0.00 | 75 | 1009.3 |
| 20260905181901 | 87 | 133 | 1.7 | 1.7 | 0.00 | 0.00 | 0.00 | 74 | 1009.3 |
| 20260905181401 | 87 | 144 | 0.9 | 0.9 | 0.00 | 0.00 | 0.00 | 78 | 1009.2 |
| 20260905180859 | 86 | 125 | 0.9 | 0.9 | 0.00 | 0.00 | 0.00 | 76 | 1009.3 |
| 20260905180355 | 86 | 89 | 0.0 | 0.9 | 0.00 | 0.00 | 0.00 | 77 | 1009.3 |
| 20260905175849 | 86 | 120 | 2.6 | 2.6 | 0.00 | 0.00 | 0.00 | 76 | 1009.3 |
| 20260905175344 | 86 | 162 | 0.9 | 1.7 | 0.00 | 0.00 | 0.00 | 76 | 1009.2 |
| 20260905174839 | 87 | 164 | 0.0 | 0.9 | 0.00 | 0.00 | 0.00 | 78 | 1009.4 |
| 20260905174335 | 87 | 159 | 0.9 | 0.9 | 0.00 | 0.00 | 0.00 | 76 | 1009.6 |
| 20260905173830 | 87 | 158 | 2.6 | 2.6 | 0.00 | 0.00 | 0.00 | 76 | 1009.5 |
| 20260905173326 | 87 | 182 | 0.9 | 0.9 | 0.00 | 0.00 | 0.00 | 78 | 1009.7 |
| 20260905172826 | 87 | 153 | 0.9 | 0.9 | 0.00 | 0.00 | 0.00 | 76 | 1009.6 |
| 20260905172324 | 86 | 185 | 1.7 | 1.7 | 0.00 | 0.00 | 0.00 | 78 | 1009.7 |
| 20260905171821 | 85 | 160 | 0.9 | 1.7 | 0.00 | 0.00 | 0.00 | 79 | 1009.7 |
| 20260905171317 | 85 | 286 | 0.9 | 1.7 | 0.00 | 0.00 | 0.00 | 78 | 1009.8 |
| 20260905170813 | 86 | 225 | 1.7 | 1.7 | 0.00 | 0.00 | 0.00 | 79 | 1009.8 |
| 20260905170309 | 86 | 237 | 1.7 | 1.7 | 0.00 | 0.00 | 0.00 | 77 | 1009.9 |
| 20260905165808 | 85 | 43 | 0.0 | 0.0 | 0.00 | 0.00 | 0.00 | 78 | 1009.9 |
| 20260905165306 | 85 | 171 | 0.9 | 0.9 | 0.00 | 0.00 | 0.00 | 79 | 1009.9 |
| 20260905164803 | 85 | 174 | 2.6 | 2.6 | 0.00 | 0.00 | 0.00 | 78 | 1009.9 |
| 20260905164258 | 85 | 187 | 0.9 | 1.7 | 0.00 | 0.00 | 0.00 | 79 | 1010.0 |
| 20260905163754 | 85 | 173 | 1.7 | 1.7 | 0.00 | 0.00 | 0.00 | 78 | 1010.0 |
| 20260905163250 | 85 | 182 | 2.6 | 2.6 | 0.00 | 0.00 | 0.00 | 79 | 1010.3 |
| 20260905162746 | 84 | 278 | 0.9 | 0.9 | 0.00 | 0.00 | 0.00 | 80 | 1010.2 |
| 20260905162245 | 84 | 224 | 1.7 | 2.6 | 0.00 | 0.00 | 0.00 | 80 | 1010.0 |
| 20260905161740 | 85 | 225 | 0.9 | 0.9 | 0.00 | 0.00 | 0.00 | 79 | 1010.2 |
| 20260905161239 | 85 | 261 | 0.0 | 0.9 | 0.00 | 0.00 | 0.00 | 79 | 1010.1 |
| 20260905160737 | 84 | 188 | 0.9 | 1.7 | 0.00 | 0.00 | 0.00 | 80 | 1010.1 |
| 20260905160237 | 84 | 273 | 0.9 | 0.9 | 0.00 | 0.00 | 0.00 | 81 | 1010.2 |
| 20260905155732 | 84 | 257 | 0.9 | 1.7 | 0.00 | 0.00 | 0.00 | 80 | 1010.6 |
| 20260905155231 | 83 | 120 | 0.9 | 0.9 | 0.00 | 0.00 | 0.00 | 80 | 1010.7 |
| 20260905154725 | 83 | 174 | 1.7 | 1.7 | 0.00 | 0.00 | 0.00 | 80 | 1010.5 |
| 20260905154221 | 83 | 164 | 1.7 | 1.7 | 0.00 | 0.00 | 0.00 | 80 | 1010.8 |
| 20260905153716 | 83 | 287 | 0.9 | 1.7 | 0.00 | 0.00 | 0.00 | 81 | 1010.7 |
| 20260905153212 | 83 | 154 | 1.7 | 1.7 | 0.00 | 0.00 | 0.00 | 79 | 1010.6 |
| 20260905152707 | 83 | 182 | 0.9 | 1.7 | 0.00 | 0.00 | 0.00 | 80 | 1010.6 |
| 20260905152201 | 83 | 167 | 0.9 | 1.7 | 0.00 | 0.00 | 0.00 | 79 | 1010.6 |
| 20260905151701 | 83 | 265 | 1.7 | 1.7 | 0.00 | 0.00 | 0.00 | 82 | 1010.7 |
| 20260905151157 | 82 | 138 | 0.9 | 0.9 | 0.00 | 0.00 | 0.00 | 82 | 1010.6 |
| 20260905150652 | 82 | 164 | 1.7 | 1.7 | 0.00 | 0.00 | 0.00 | 82 | 1010.4 |
| 20260905150150 | 82 | 70 | 0.0 | 0.0 | 0.00 | 0.00 | 0.00 | 81 | 1010.4 |
| 20260905145649 | 82 | 125 | 0.9 | 0.9 | 0.00 | 0.00 | 0.00 | 82 | 1010.7 |
| 20260905145149 | 82 | 169 | 1.7 | 1.7 | 0.00 | 0.00 | 0.00 | 81 | 1010.7 |
| 20260905144643 | 81 | 215 | 0.9 | 0.9 | 0.00 | 0.00 | 0.00 | 83 | 1010.6 |
| 20260905144143 | 80 | 181 | 2.6 | 2.6 | 0.00 | 0.00 | 0.00 | 83 | 1010.6 |
| 20260905143637 | 80 | 184 | 0.9 | 1.7 | 0.00 | 0.00 | 0.00 | 85 | 1010.2 |
| 20260905143132 | 80 | 156 | 1.7 | 1.7 | 0.00 | 0.00 | 0.00 | 85 | 1010.2 |
| 20260905142630 | 79 | 313 | 0.0 | 0.0 | 0.00 | 0.00 | 0.00 | 86 | 1010.2 |
| 20260905142125 | 79 | 173 | 0.9 | 1.7 | 0.00 | 0.00 | 0.00 | 86 | 1010.3 |
| 20260905141624 | 79 | 175 | 0.9 | 0.9 | 0.00 | 0.00 | 0.00 | 86 | 1010.3 |
| 20260905141121 | 79 | 159 | 0.0 | 0.9 | 0.00 | 0.00 | 0.00 | 86 | 1010.3 |
| 20260905140616 | 79 | 156 | 0.0 | 0.9 | 0.00 | 0.00 | 0.00 | 86 | 1010.2 |
| 20260905140115 | 78 | 63 | 0.0 | 0.0 | 0.00 | 0.00 | 0.00 | 87 | 1010.2 |
| 20260905135611 | 78 | 84 | 0.0 | 0.9 | 0.00 | 0.00 | 0.00 | 86 | 1010.5 |
| 20260905135106 | 79 | 238 | 0.9 | 0.9 | 0.00 | 0.00 | 0.00 | 87 | 1010.5 |
| 20260905134601 | 78 | 180 | 1.7 | 1.7 | 0.00 | 0.00 | 0.00 | 86 | 1010.4 |
| 20260905134059 | 78 | 46 | 0.9 | 0.9 | 0.00 | 0.00 | 0.00 | 86 | 1010.6 |
| 20260905133555 | 79 | 71 | 0.9 | 1.7 | 0.00 | 0.00 | 0.00 | 86 | 1010.6 |
| 20260905133054 | 79 | 169 | 2.6 | 2.6 | 0.00 | 0.00 | 0.00 | 85 | 1010.3 |
| 20260905132554 | 79 | 176 | 0.9 | 1.7 | 0.00 | 0.00 | 0.00 | 86 | 1010.5 |
| 20260905132049 | 78 | 351 | 0.0 | 0.9 | 0.00 | 0.00 | 0.00 | 86 | 1010.4 |
| 20260905131545 | 78 | 145 | 0.0 | 0.9 | 0.00 | 0.00 | 0.00 | 85 | 1010.6 |
| 20260905131040 | 78 | 136 | 1.7 | 1.7 | 0.00 | 0.00 | 0.00 | 85 | 1010.6 |
| 20260905130539 | 78 | 169 | 0.9 | 0.9 | 0.00 | 0.00 | 0.00 | 86 | 1010.5 |
| 20260905130034 | 77 | 205 | 0.9 | 0.9 | 0.00 | 0.00 | 0.00 | 87 | 1010.4 |
| 20260905125533 | 77 | 192 | 0.0 | 0.0 | 0.00 | 0.00 | 0.00 | 87 | 1010.6 |
| 20260905125029 | 77 | 92 | 0.0 | 0.0 | 0.00 | 0.00 | 0.00 | 89 | 1010.4 |
| 20260905124526 | 76 | 73 | 0.0 | 0.0 | 0.00 | 0.00 | 0.00 | 90 | 1010.5 |
| 20260905124021 | 75 | 132 | 0.9 | 0.9 | 0.00 | 0.00 | 0.00 | 92 | 1010.6 |
| 20260905123517 | 75 | 319 | 0.0 | 0.0 | 0.00 | 0.00 | 0.00 | 94 | 1010.6 |
| 20260905123014 | 74 | 115 | 0.0 | 0.0 | 0.00 | 0.00 | 0.00 | 94 | 1010.6 |
| 20260905122513 | 74 | 293 | 0.0 | 0.0 | 0.00 | 0.00 | 0.00 | 95 | 1010.6 |
| 20260905122008 | 74 | 15 | 0.0 | 0.0 | 0.00 | 0.00 | 0.00 | 95 | 1010.5 |
| 20260905121503 | 74 | 344 | 0.0 | 0.0 | 0.00 | 0.00 | 0.00 | 95 | 1010.6 |
| 20260905121002 | 74 | 342 | 0.0 | 0.0 | 0.00 | 0.00 | 0.00 | 96 | 1010.6 |